DW5086 Weather Reports


time (UTC)temp
C
wind
direction
speed
KPH
gust
KPH
rain 1hr
cm
rain 24hr
cm
rain mn
cm
humidity
%
barometer
mb
20260906140106 19 0 3.2 8.0 0.00 0.00 0.00 97 1019.5
20260906130605 17 0 3.2 4.8 0.00 0.00 0.00 97 1019.3
20260906130105 17 0 1.6 9.7 0.00 0.00 0.00 97 1019.2
20260906120605 17 0 4.8 8.0 0.00 0.00 0.00 97 1018.8
20260906120105 17 0 4.8 14.5 0.00 0.00 0.00 97 1018.9
20260906110605 17 0 3.2 4.8 0.00 0.00 0.00 96 1018.0
20260906110105 17 0 1.6 9.7 0.00 0.00 0.00 96 1018.1
20260906100605 17 0 6.4 12.9 0.00 0.00 0.00 95 1018.0
20260906100105 17 0 9.7 14.5 0.00 0.00 0.00 95 1018.1
20260906090605 17 0 3.2 4.8 0.00 0.00 0.00 95 1017.7
20260906090105 17 0 1.6 8.0 0.00 0.00 0.00 94 1017.8
20260906080605 17 0 3.2 4.8 0.00 0.00 0.00 96 1017.7
20260906080105 17 0 3.2 8.0 0.00 0.00 0.00 96 1017.7
20260906070605 18 0 3.2 9.7 0.00 0.00 0.00 92 1017.7
20260906070105 18 0 4.8 8.0 0.00 0.00 0.00 93 1017.5
20260906060605 17 0 0.0 0.0 0.00 0.00 0.00 93 1017.4
20260906050605 18 0 0.0 0.0 0.00 0.00 0.00 89 1017.1
20260906050105 18 0 0.0 1.6 0.00 0.00 0.00 89 1017.0
20260906040605 20 0 0.0 0.0 0.00 0.00 0.00 86 1016.8
20260906040105 20 0 0.0 4.8 0.00 0.00 0.00 86 1016.8
20260906030605 20 0 0.0 1.6 0.00 0.00 0.00 84 1016.4
20260906030106 20 0 1.6 4.8 0.00 0.00 0.00 84 1016.3
20260906020605 21 0 4.8 9.7 0.00 0.00 0.00 86 1016.2
20260906020106 21 0 4.8 12.9 0.00 0.00 0.00 86 1016.1
20260906010605 21 0 0.0 0.0 0.00 0.00 0.00 91 1015.6
20260906010105 21 0 0.0 1.6 0.00 0.00 0.00 91 1015.6
20260906000606 22 0 0.0 1.6 0.00 0.00 0.00 87 1015.6
20260906000105 23 0 0.0 19.3 0.00 0.00 0.00 87 1015.7
20260905230604 23 0 4.8 8.0 0.00 0.00 0.00 86 1015.8
20260905230111 23 0 4.8 14.5 0.00 0.00 0.00 86 1015.8
20260905220605 23 0 3.2 8.0 0.00 0.00 0.00 86 1015.3
20260905220105 23 0 4.8 16.1 0.00 0.00 0.00 86 1015.3
20260905210604 23 0 9.7 14.5 0.00 0.00 0.00 88 1015.5
20260905210105 23 0 9.7 19.3 0.00 0.00 0.00 88 1015.4
20260905200605 23 0 8.0 12.9 0.00 0.00 0.00 91 1015.7
20260905200105 22 0 8.0 16.1 0.00 0.00 0.00 90 1015.7
20260905190605 22 0 8.0 9.7 0.00 0.00 0.00 93 1015.6
20260905190105 22 0 8.0 14.5 0.00 0.00 0.00 93 1015.7
20260905180604 22 0 6.4 12.9 0.00 0.00 0.00 91 1015.9
20260905180104 22 0 8.0 19.3 0.00 0.00 0.00 91 1015.9
20260905170604 22 0 12.9 19.3 0.00 0.00 0.00 93 1015.6
20260905170104 22 0 8.0 19.3 0.00 0.00 0.00 93 1015.6
20260905160605 22 0 8.0 12.9 0.00 0.00 0.00 95 1015.8
20260905160104 22 0 8.0 14.5 0.00 0.00 0.00 95 1015.8
20260905150604 21 0 9.7 12.9 0.00 2.01 0.00 96 1015.4
20260905150104 21 0 8.0 19.3 0.00 2.74 0.00 96 1015.4